મેટ્રિક્સ
 
 
બજારના આંકડાઓ - ઈન્ટ્રાડે બ્લોક ડીલ
  તમે અહિં છો  :  બજાર   બજારના અન્ય આકડાઓ  ઈન્ટ્રાડે બ્લોક ડીલ
ઈન્ટ્રાડે બ્લોક ડીલ
બીએસઈ અને એનએસઈના બધા સ્ટોકની યાદી છે જેમાં બ્લોક ડીલ દિવસ દરમિયાન (લાઈવ ભાવ-ડીલેઈડ ફીડ) અને જયારે સોદો થયો છે તેની વિગતો તમે દરેક જેમ કે ઊંચી કિંમત માટે સરવાળો, દર અને આ સોદો કરવામાં આવ્યો હતો તેમ જ સમયના ઉંચા મૂલ્યના વ્યવહાર જોઈ શકો છો
આના પર બધી બ્લોક ડીલ :
અન્ય કંપનીની બ્લોક ડીલ શોધો
કંપનીનું નામ
બધી બ્લોક ડીલ જુઓ બીએસઈ અને એનએસઈ. જુઓ કે કોણે શેર વેચ્યા અને ખરીદ્યા
બીએસઈ/એનએસઈ 25 મે 2018
બ્લોક ડીલ્સ
કંપનીનું નામ એક્સચેન્જ ક્ષેત્ર ક્વાંટિટી ભાવ મૂલ્ય(રૂ.કરોડમાં) સમય
ટેક મહિન્દ્રા એનએસઈ કોમ્પ્યુટર-સોફ્ટવેર 140628 715.05 10.06 09:15
આઈવીઆરસીએલ એનએસઈ કન્સટ્રક્શન એન્ડ કોન્ટ્રેકટીંગ-સિવિલ 893756 2.00 0.18 09:23
વોલ્ટાસ એનએસઈ ડાઈવર્સીફાઈડ 300982 529.25 15.93 09:28
વોલ્ટાસ એનએસઈ ડાઈવર્સીફાઈડ 183919 529.25 9.73 09:30
મારુતિ સુઝુકી ઇંડિયા એનએસઈ ઓટો-કાર અને જીપ 25067 8,448.55 21.18 09:38
વોલ્ટાસ એનએસઈ ડાઈવર્સીફાઈડ 206655 530.00 10.95 09:44
સુઝલોન એનર્જી બીએસઈ Power - Generation & Distribution 1558325 9.02 1.41 09:47
એલટી ફૂડ્સ એનએસઈ ફૂડ પ્રોસેસિંગ 1402533 78.05 10.95 09:58
ગ્લેનમાર્ક ફાર્મા એનએસઈ ફાર્માસ્યુટીક્લ્સ 336137 528.50 17.76 10:00
મધરસન સુમી સિસ્ટમ્સ એનએસઈ ઓટો-એન્સીલરી 871601 303.55 26.46 10:07
કવાલીટી એનએસઈ ફૂડ પ્રોસેસિંગ 702672 47.90 3.37 10:10
જીએસકે કન્ઝ્યુંમર બીએસઈ ફૂડ પ્રોસેસિંગ 15000 6,500.00 9.75 10:15
સુઝલોન એનર્જી બીએસઈ Power - Generation & Distribution 4840842 9.01 4.36 10:16
ટાટા કેમિકલ્સ એનએસઈ કેમિકલ્સ 91702 732.80 6.72 10:17
મધરસન સુમી સિસ્ટમ્સ બીએસઈ ઓટો-એન્સીલરી 420000 305.00 12.81 10:23
ટાટા કન્સલટન્સી સર્વિસીસ એનએસઈ કોમ્પ્યુટર-સોફ્ટવેર 76080 3,655.60 27.81 10:25
ભારતી એયરટેલ એનએસઈ દૂરસંચાર-સેવા 150759 374.50 5.65 10:31
દાલમિયા ભરત એનએસઈ સિમેન્ટ-અગ્રણી 30007 2,600.85 7.80 10:37
યુનાઇટેડ બ્રેવરીઝ એનએસઈ બ્રુવરીઝ અને ડિસ્ટીલરી 45905 1,223.00 5.61 10:51
ગ્રાસીમ ઈન્ડસ્ટ્રીઝ એનએસઈ ડાઈવર્સીફાઈડ 56054 1,011.00 5.67 10:56
હાઉસીંગ ડેવલપમેન્ટ ફાઇનાન્સ કોર્પોર બીએસઈ ફાઈનાન્સ- હાઉસીંગ 95000 1,800.00 17.10 10:58
સ્કેફલર ઇન્ડિયા એનએસઈ બેરિંગ્સ 50000 5,300.00 26.50 11:01
થર્મેક્સ એનએસઈ Infrastructure - General 100000 1,124.00 11.24 11:03
શ્રી સિમેન્ટ્સ એનએસઈ સિમેન્ટ-અગ્રણી 10003 16,205.00 16.21 11:05
સદભાવ એન્જીન્યરીંગ એનએસઈ Infrastructure - General 200093 360.20 7.21 11:06
સુઝલોન એનર્જી એનએસઈ Power - Generation & Distribution 527434 9.05 0.48 11:07
પી ઍન સી ઈન્ફ્રા ટેક એનએસઈ કન્સટ્રક્શન એન્ડ કોન્ટ્રેકટીંગ-રીયલ એસ્ટેટ 499321 174.35 8.71 11:14
રિલાયંસ ઇન્ડસ્ટ્રીઝ એનએસઈ રિફાઈનરીઝ 100185 919.15 9.21 11:16
ઉતમ વેલ્યુ સ્ટીલ્સ એનએસઈ Steel - CR & HR Strips 500000 0.15 0.01 11:17
થર્મેક્સ એનએસઈ Infrastructure - General 73971 1,124.00 8.31 11:18
દાલમિયા ભરત એનએસઈ સિમેન્ટ-અગ્રણી 25068 2,601.00 6.52 11:25
કોલગેટ પામોલીવ ઇન્ડિયા એનએસઈ પર્સનલ કેર 50000 1,259.00 6.30 11:29
દાલમિયા ભરત એનએસઈ સિમેન્ટ-અગ્રણી 24633 2,601.05 6.41 11:30
સુઝલોન એનર્જી બીએસઈ Power - Generation & Distribution 3800000 9.05 3.44 11:33
સુઝલોન એનર્જી બીએસઈ Power - Generation & Distribution 4879115 9.05 4.42 11:34
એનએસઈ Infrastructure - General 167730 1,337.00 22.43 11:36
આઈવીઆરસીએલ એનએસઈ કન્સટ્રક્શન એન્ડ કોન્ટ્રેકટીંગ-સિવિલ 500000 2.00 0.10 11:37
સુઝલોન એનર્જી એનએસઈ Power - Generation & Distribution 606160 9.00 0.55 11:40
એક્સિસ બેંક એનએસઈ બેન્ક-ખાનગી ક્ષેત્ર 152097 536.70 8.16 11:50
ગેલ ઇન્ડિયા એનએસઈ ઓઈલ ડ્રિલીંગ અને એક્સપ્લોરેશન 301673 318.75 9.62 11:57
વીશેશ ઇન્ફોટેકનીક્સ એનએસઈ Computers - Software Medium & Small 500000 0.10 0.01 12:08
રિલાયંસ ઇન્ડસ્ટ્રીઝ એનએસઈ રિફાઈનરીઝ 98328 920.75 9.05 12:09
ઇન્દ્રપ્રસ્થ ગેસ એનએસઈ ઓઈલ ડ્રિલીંગ અને એક્સપ્લોરેશન 515561 258.65 13.33 12:10
બિરલા કોર્પોરેસન એનએસઈ સિમેન્ટ-અગ્રણી 165000 735.00 12.13 12:13
સુઝલોન એનર્જી એનએસઈ Power - Generation & Distribution 500000 9.05 0.45 12:41
સુઝલોન એનર્જી એનએસઈ Power - Generation & Distribution 511160 9.05 0.46 12:42
અહુલિવાલિયા કોન્ટ્રાક્ટ્સ ઇન્ડીયા એનએસઈ કન્સટ્રક્શન એન્ડ કોન્ટ્રેકટીંગ-સિવિલ 200000 385.00 7.70 12:44
પેટ્રોનેટ એલએનજી એનએસઈ ઓઈલ ડ્રિલીંગ અને એક્સપ્લોરેશન 2007167 211.05 42.36 12:45
હાઉસીંગ ડેવલપમેન્ટ ફાઇનાન્સ કોર્પોર એનએસઈ ફાઈનાન્સ- હાઉસીંગ 53423 1,800.00 9.62 12:48
બાલકૃષ્ણ ઇન્ડસ્ટ્રીસ એનએસઈ ટાયર 50303 1,080.00 5.43 12:49
અતુલ એનએસઈ ડાઈસ એન્ડ પિગમેન્ટસ 50000 2,765.00 13.83 12:52
રિલાયંસ ઇન્ડસ્ટ્રીઝ એનએસઈ રિફાઈનરીઝ 396932 919.95 36.52 13:01
એવેન્યૂ સુપરમાર્ટ એનએસઈ રિટેલ 35148 1,486.10 5.22 13:05
ઓબેરોય રીયાલ્ટી એનએસઈ કન્સટ્રક્શન એન્ડ કોન્ટ્રેકટીંગ-રીયલ એસ્ટેટ 124480 499.85 6.22 13:12
હાઉસીંગ ડેવલપમેન્ટ ફાઇનાન્સ કોર્પોર બીએસઈ ફાઈનાન્સ- હાઉસીંગ 165000 1,797.85 29.66 13:14
સીસીએલ પ્રોડક્ટ્સ ઇન્ડીયા એનએસઈ પ્લાન્ટેશન - ચ્હા અને કોફી 180093 314.00 5.65 13:16
ગ્લેનમાર્ક ફાર્મા એનએસઈ ફાર્માસ્યુટીક્લ્સ 201713 535.20 10.80 13:25
ચોલામંડલમ ઇનવેસ્ટમેન્ટ એન્ડ ફાઇનાન્ એનએસઈ ફાઈનાન્સ-લિઝીંગ તથા હાયર પરચેઝ 80638 1,507.80 12.16 13:26
એક્સિસ બેંક એનએસઈ બેન્ક-ખાનગી ક્ષેત્ર 158253 534.55 8.46 13:27
લ્યુપિન એનએસઈ ફાર્માસ્યુટીક્લ્સ 391441 740.00 28.97 13:29
વેદાંતા એનએસઈ Mining & Minerals 251269 246.80 6.20 13:32
મહિન્દ્રા એન્ડ મહિન્દ્રા એનએસઈ ઓટો-કાર અને જીપ 61876 854.80 5.29 13:37
મહિન્દ્રા એન્ડ મહિન્દ્રા ફાયનાન્સીય એનએસઈ ફાઈનાન્સ-લિઝીંગ તથા હાયર પરચેઝ 400670 464.85 18.63 13:42
વીશેશ ઇન્ફોટેકનીક્સ એનએસઈ Computers - Software Medium & Small 1000000 0.10 0.01 14:15
એક્સિસ બેંક એનએસઈ બેન્ક-ખાનગી ક્ષેત્ર 152521 535.90 8.17 14:16
રિલાયંસ ઇન્ડસ્ટ્રીઝ એનએસઈ રિફાઈનરીઝ 125142 920.00 11.51 14:21
લૉર્સિસ લેબ્સ એનએસઈ ફાર્માસ્યુટીક્લ્સ 160105 454.25 7.27 14:22
રિલાયંસ ઇન્ડસ્ટ્રીઝ એનએસઈ રિફાઈનરીઝ 301008 920.45 27.71 14:23
રિલાયંસ ઇન્ડસ્ટ્રીઝ એનએસઈ રિફાઈનરીઝ 100000 920.00 9.20 14:26
ઇન્દ્રપ્રસ્થ ગેસ એનએસઈ ઓઈલ ડ્રિલીંગ અને એક્સપ્લોરેશન 345861 258.50 8.94 14:30
બાલકૃષ્ણ ઇન્ડસ્ટ્રીસ એનએસઈ ટાયર 118976 1,090.85 12.98 14:33
ગેલ ઇન્ડિયા એનએસઈ ઓઈલ ડ્રિલીંગ અને એક્સપ્લોરેશન 161881 321.90 5.21 14:40
વીશેશ ઇન્ફોટેકનીક્સ એનએસઈ Computers - Software Medium & Small 556456 0.10 0.01 14:42
એવેન્યૂ સુપરમાર્ટ એનએસઈ રિટેલ 37541 1,501.50 5.64 14:44
આઈડીબીઆઈ બેંક એનએસઈ બેન્ક-જાહેર ક્ષેત્ર 643119 65.45 4.21 14:53
સુઝલોન એનર્જી એનએસઈ Power - Generation & Distribution 514961 9.10 0.47 14:55
ઇલેક્ટ્રોસ્ટીલ સ્ટીલસ બીએસઈ Steel - Medium & Small 4521733 0.83 0.38 14:56
ઇલેક્ટ્રોસ્ટીલ સ્ટીલસ બીએસઈ Steel - Medium & Small 569190 0.85 0.05 14:58
ઇલેક્ટ્રોસ્ટીલ સ્ટીલસ બીએસઈ Steel - Medium & Small 1250000 0.85 0.11 14:59
લિંક્વીડ બીઝ બીએસઈ ફાઈનાન્સ- રોકાણ 50000 1,000.01 5.00 15:00
રિલાયંસ ઇન્ડસ્ટ્રીઝ એનએસઈ રિફાઈનરીઝ 155263 920.00 14.28 15:03
કમિન્સ ઈન્ડિયા એનએસઈ એન્જિન 102297 704.30 7.20 15:04
રિલાયંસ ઇન્ડસ્ટ્રીઝ એનએસઈ રિફાઈનરીઝ 369031 920.00 33.95 15:05
ઇલેક્ટ્રોસ્ટીલ સ્ટીલસ બીએસઈ Steel - Medium & Small 3000000 0.91 0.27 15:11
કેપ્રી ગ્લોબલ કેપિટલ એનએસઈ ફાઈનાન્સ-જનરલ 890222 95.00 8.46 15:12
એનટીપીસી એનએસઈ Power - Generation & Distribution 375859 165.55 6.22 15:13
ઇલેક્ટ્રોસ્ટીલ સ્ટીલસ બીએસઈ Steel - Medium & Small 2651750 0.91 0.24 15:15
ઇલેક્ટ્રોસ્ટીલ સ્ટીલસ બીએસઈ Steel - Medium & Small 2723946 0.91 0.25 15:16
ઇલેક્ટ્રોસ્ટીલ સ્ટીલસ બીએસઈ Steel - Medium & Small 1500000 0.83 0.12 15:17
શ્રી રેણુકા સ્યુગર્સ બીએસઈ સાકર 700000 16.05 1.12 15:18
ઇલેક્ટ્રોસ્ટીલ સ્ટીલસ બીએસઈ Steel - Medium & Small 1168000 0.91 0.11 15:19
ઇલેક્ટ્રોસ્ટીલ સ્ટીલસ બીએસઈ Steel - Medium & Small 2500000 0.91 0.23 15:22
ઇલેક્ટ્રોસ્ટીલ સ્ટીલસ બીએસઈ Steel - Medium & Small 1795364 0.91 0.16 15:23
ઇલેક્ટ્રોસ્ટીલ સ્ટીલસ બીએસઈ Steel - Medium & Small 515000 0.91 0.05 15:24
ઇલેક્ટ્રોસ્ટીલ સ્ટીલસ બીએસઈ Steel - Medium & Small 1596710 0.85 0.14 15:25
હિંદૂસ્તાન ઝીંક બીએસઈ મેટલ્સ-નોન ફેરસ 317936 290.05 9.22 15:26